Wind_Speed
56 56 55 54 54 55 55 55 57 53 50 49 51 47 43 47 53 53 52 54 60 53 55 59 62 64 67 69 71 73 74 73 74 72 74 74 73 76 75 75 73 72 70
62 61 60 59 57 58 61 55 55 51 51 53 51 52 52 56 45 43 45 50 54 56 58 61 64 66 67 69 72 73 75 77 80 80 81 80 80 77 77 77 76 76 74
66 67 66 63 63 55 51 45 48 46 49 46 47 44 46 46 45 46 49 51 54 57 60 61 63 66 70 72 73 73 75 77 78 81 84 85 86 83 81 84 83 81 79
60 57 49 43 37 38 44 40 38 37 43 43 45 45 45 42 42 44 48 53 55 56 58 61 62 64 66 68 69 69 69 69 71 75 79 83 85 87 88 88 87 88 89
33 36 37 31 28 36 43 46 39 39 41 42 38 36 35 38 42 47 52 54 54 56 58 59 60 60 63 63 61 62 64 65 67 69 71 73 75 77 80 80 84 86 83
35 32 33 33 34 36 39 34 36 38 38 41 38 37 39 45 49 50 52 54 55 54 55 57 56 56 58 59 57 58 60 62 66 71 74 76 78 80 79 82 81 78 83
40 39 35 31 31 32 34 35 39 40 38 39 40 40 43 46 48 49 51 51 50 50 50 49 51 51 52 55 57 59 61 63 66 71 72 69 71 73 72 71 74 76 76
36 35 38 41 41 44 39 34 34 35 37 38 41 42 43 45 45 45 47 47 47 47 47 47 48 52 54 56 56 56 59 62 66 68 66 63 65 64 68 66 62 63 64
38 35 37 38 36 38 33 34 33 33 34 36 38 40 41 42 42 42 42 44 46 47 48 51 52 52 54 53 56 59 62 64 65 66 62 61 63 60 54 49 45 43 37
40 39 35 31 29 26 27 27 30 32 33 34 35 37 38 39 40 41 43 46 48 49 52 52 52 53 57 59 61 65 66 63 62 58 56 56 53 48 45 46 45 39 28
36 27 20 20 20 22 22 25 28 30 32 33 35 37 39 41 43 46 47 48 48 49 49 51 54 56 59 63 66 65 62 56 54 52 50 46 43 40 41 44 40 36 30
16 13 14 18 21 23 25 26 30 33 35 37 39 40 42 45 45 46 47 47 46 47 49 53 57 60 62 63 61 55 53 48 48 46 42 37 37 37 37 32 29 28 31
12 15 18 21 22 26 27 29 33 36 38 38 38 39 41 43 46 46 46 45 47 51 54 58 60 60 58 56 54 48 43 44 43 39 33 32 34 29 25 22 20 15 19
15 19 24 26 29 30 31 33 33 35 37 38 39 41 43 45 45 45 45 48 50 52 57 58 55 52 51 51 45 41 42 40 39 31 28 30 25 21 18 16 13 16 16
22 24 27 30 32 34 36 36 36 36 38 37 38 40 49 46 44 47 49 50 52 54 53 52 50 49 47 42 40 38 37 36 32 28 26 25 19 15 14 11 12 14 7
26 30 33 35 37 37 38 39 39 40 38 36 37 43 48 45 49 51 51 51 50 49 48 48 47 43 39 37 36 34 34 31 27 24 24 21 15 11 10 4 6 8 4
28 31 34 34 35 35 36 41 40 39 40 41 45 48 52 53 50 48 47 45 44 44 44 42 40 37 34 33 33 30 30 27 24 21 21 18 12 9 7 3 5 7 4
23 27 28 29 30 33 34 35 37 38 38 37 37 39 40 40 40 40 40 42 42 41 40 38 35 32 30 30 30 28 27 25 21 19 18 15 8 8 5 1 1 3 6
24 28 31 31 29 28 27 31 31 32 32 32 33 32 32 34 34 35 35 37 37 37 36 34 32 29 28 29 28 26 24 22 18 18 16 13 7 9 7 3 3 1 6
22 26 28 28 28 26 28 31 29 28 27 27 26 26 27 28 30 32 33 34 35 35 34 31 30 28 26 27 25 23 22 19 17 15 13 12 8 9 12 9 3 5 10
22 25 24 25 27 29 31 29 24 22 22 24 25 26 27 28 29 30 31 32 33 32 31 29 28 27 25 25 23 21 19 17 16 14 12 10 9 10 13 13 9 6 8
23 26 29 29 27 29 27 23 20 18 18 20 21 23 25 27 29 30 31 33 33 31 28 27 26 25 24 24 22 20 18 15 15 14 12 10 8 11 13 16 14 10 9
27 25 28 30 29 26 26 24 23 21 22 23 23 26 28 30 32 33 34 36 34 32 29 27 25 25 24 23 21 18 18 15 14 13 12 11 9 10 13 15 17 17 14
35 27 31 34 33 29 25 28 30 30 29 32 32 29 29 31 35 36 37 37 39 35 31 28 25 24 23 22 20 17 16 15 14 13 12 12 11 10 11 15 18 18 19
38 30 33 36 33 34 30 26 29 31 33 32 32 33 33 34 35 36 38 38 39 39 34 30 26 23 23 21 19 17 15 14 14 14 13 13 13 12 12 13 17 19 19
38 34 32 35 39 37 38 33 29 30 31 32 35 37 38 39 38 38 37 39 41 40 35 30 26 23 22 20 19 16 15 13 13 14 13 13 13 13 13 13 15 18 20
Wind_Direction
266 268 272 275 276 278 277 276 268 271 274 274 276 267 265 265 268 263 264 268 270 268 272 275 276 277 277 277 277 278 278 277 276 275 276 277 275 274 273 272 271 268 266
266 266 270 274 276 276 271 266 261 267 264 270 265 259 256 255 268 275 280 280 279 279 279 280 280 280 281 282 283 283 283 282 280 280 279 278 277 275 273 271 269 268 266
265 267 269 267 265 261 257 247 249 252 255 255 259 263 265 270 273 278 281 280 279 280 282 281 281 281 281 281 281 281 280 280 281 280 279 278 276 275 273 273 271 266 264
258 258 261 254 257 256 249 273 277 277 270 266 266 266 265 269 276 282 282 280 280 282 282 282 282 283 283 283 283 284 285 286 286 284 281 280 281 280 279 276 273 273 267
254 268 270 266 270 261 260 271 279 271 266 265 264 270 273 276 281 282 281 280 283 284 285 286 288 289 289 289 291 291 291 290 290 289 290 289 289 286 284 281 277 272 269
272 257 268 278 273 270 267 265 279 275 269 277 285 288 289 282 280 282 283 285 287 289 290 290 290 290 292 292 292 292 291 292 293 291 291 289 288 287 285 282 280 276 268
266 275 286 281 262 265 270 276 280 285 286 289 287 283 283 283 285 287 289 290 290 290 290 291 292 292 292 293 293 292 293 293 295 295 297 298 295 289 287 284 280 278 274
268 281 277 273 271 275 280 275 276 275 278 280 282 284 283 283 286 288 289 290 289 289 290 291 292 293 293 292 291 291 292 294 301 302 301 300 297 294 291 289 287 281 276
279 274 278 273 273 270 267 272 276 278 280 282 283 287 289 289 288 289 290 289 291 291 293 295 294 296 296 295 293 296 301 301 303 304 302 300 298 297 295 295 295 293 287
280 272 262 262 265 269 270 274 277 282 288 292 292 289 288 289 291 292 291 292 292 294 296 297 297 296 295 295 295 299 300 300 302 301 300 300 296 293 296 298 301 300 298
270 254 264 270 277 280 285 290 294 294 290 288 289 289 290 291 290 290 291 292 294 297 297 297 297 298 298 301 302 301 301 299 300 301 302 296 292 294 296 299 301 303 306
260 280 283 286 290 292 296 297 295 291 290 289 290 289 290 290 290 291 292 293 294 296 298 299 298 300 302 304 305 305 304 301 302 304 301 294 293 298 298 299 300 299 299
265 272 281 289 292 294 293 292 292 291 291 289 288 289 289 289 291 292 294 293 295 294 297 298 300 301 304 304 305 304 304 304 305 306 299 297 301 300 296 296 297 300 299
282 292 297 298 292 288 289 289 292 294 293 290 290 290 291 291 291 292 293 295 296 297 299 301 302 303 303 304 303 304 305 307 308 305 300 302 307 298 297 302 295 288 300
300 296 293 288 288 290 294 292 292 293 295 297 295 293 286 288 290 293 296 296 297 299 301 302 303 304 304 304 306 307 307 309 308 304 303 311 306 297 301 292 294 299 285
306 304 302 299 295 293 294 289 290 290 287 282 282 277 278 285 293 298 296 295 297 298 300 302 303 303 302 304 307 307 307 309 305 302 306 315 303 289 292 298 292 313 321
308 303 301 298 299 299 294 295 292 290 288 284 278 277 281 289 293 295 296 297 298 299 300 302 302 301 301 304 308 307 308 307 302 300 305 310 298 279 279 272 325 32 67
334 335 328 316 310 304 301 298 299 298 295 292 290 290 292 293 295 296 297 298 299 300 300 300 301 299 302 305 309 306 307 304 300 298 302 308 282 255 267 266 98 45 87
349 342 342 338 329 323 314 312 307 303 302 303 303 301 301 302 303 304 304 304 302 302 301 301 300 300 303 306 307 305 304 300 295 295 297 303 267 236 226 206 79 115 125
344 347 348 346 338 331 334 329 323 319 318 320 320 319 319 317 316 314 312 310 307 307 305 300 298 298 301 308 305 302 300 297 291 287 286 295 268 236 225 208 178 155 138
338 340 340 345 346 336 337 339 335 333 334 333 330 330 327 324 322 322 321 319 314 309 306 299 296 296 296 308 305 300 298 292 286 281 274 279 269 242 219 218 218 194 204
329 334 335 329 339 339 330 330 330 331 331 335 335 340 341 347 342 331 325 324 322 314 308 300 295 294 295 303 304 297 296 288 279 275 268 262 257 239 229 219 215 211 186
333 329 329 321 323 330 318 307 308 310 315 318 321 322 325 327 330 331 329 324 324 322 312 303 296 294 295 296 302 293 292 284 276 266 263 251 248 238 228 222 219 221 207
340 326 329 325 316 317 327 311 304 304 304 304 304 305 308 311 318 321 326 326 322 321 316 306 297 292 292 291 298 289 286 277 270 258 254 247 240 238 232 228 219 214 211
333 328 328 327 319 310 307 311 310 308 305 305 304 306 311 314 315 316 319 321 318 316 315 308 298 290 288 286 291 282 279 268 262 252 245 241 239 233 232 230 227 218 208
325 319 322 330 328 316 303 298 305 308 306 307 309 312 309 310 315 317 317 315 313 311 311 308 298 288 283 282 286 277 273 263 253 246 239 233 231 231 229 226 225 226 216
Height
5766 5765 5765 5764 5763 5761 5760 5758 5757 5757 5756 5754 5752 5750 5749 5748 5747 5746 5745 5745 5744 5741 5740 5738 5737 5735 5731 5727 5724 5721 5717 5714 5713 5712 5709 5705 5704 5702 5701 5701 5701 5702 5703
5751 5751 5750 5749 5747 5745 5744 5741 5741 5741 5739 5738 5738 5737 5735 5734 5731 5730 5730 5730 5729 5726 5724 5721 5719 5716 5712 5709 5704 5700 5695 5690 5688 5687 5683 5681 5679 5677 5676 5678 5678 5678 5680
5739 5737 5735 5733 5732 5732 5731 5724 5723 5724 5726 5724 5724 5722 5721 5720 5719 5718 5716 5716 5715 5712 5708 5705 5702 5698 5695 5691 5686 5681 5677 5671 5666 5662 5659 5655 5653 5651 5653 5650 5649 5652 5654
5722 5720 5718 5718 5716 5717 5718 5716 5714 5713 5713 5711 5710 5709 5708 5707 5706 5705 5704 5702 5699 5695 5692 5689 5685 5681 5678 5673 5668 5663 5657 5651 5645 5641 5637 5632 5627 5624 5622 5622 5627 5621 5623
5707 5707 5707 5704 5703 5706 5705 5705 5703 5702 5700 5700 5698 5697 5695 5695 5693 5692 5689 5686 5683 5680 5677 5674 5670 5665 5660 5655 5649 5644 5638 5633 5627 5622 5616 5611 5604 5601 5596 5593 5592 5592 5600
5697 5695 5696 5696 5693 5695 5694 5693 5693 5691 5689 5689 5688 5685 5684 5682 5680 5678 5675 5672 5669 5665 5661 5658 5654 5650 5644 5639 5635 5629 5623 5617 5611 5603 5598 5591 5586 5576 5573 5566 5561 5559 5564
5687 5685 5684 5686 5686 5685 5683 5681 5681 5679 5678 5676 5675 5673 5671 5671 5668 5665 5663 5658 5655 5651 5647 5643 5640 5635 5631 5625 5619 5613 5607 5601 5592 5584 5577 5568 5563 5554 5546 5542 5535 5530 5528
5675 5676 5677 5676 5673 5673 5672 5671 5669 5669 5668 5666 5665 5663 5660 5658 5655 5652 5650 5645 5642 5638 5634 5630 5627 5623 5617 5612 5606 5600 5593 5586 5576 5566 5557 5552 5541 5535 5522 5514 5509 5504 5500
5666 5666 5665 5664 5664 5663 5662 5662 5661 5660 5658 5656 5654 5652 5649 5645 5643 5639 5637 5634 5631 5627 5622 5618 5614 5609 5602 5596 5592 5585 5578 5570 5560 5550 5541 5533 5523 5514 5504 5498 5492 5485 5482
5656 5655 5655 5655 5654 5654 5654 5652 5651 5650 5648 5646 5644 5642 5638 5635 5631 5627 5625 5622 5619 5614 5609 5604 5599 5597 5589 5583 5575 5569 5562 5553 5545 5537 5528 5518 5508 5501 5494 5486 5479 5473 5470
5647 5646 5647 5646 5646 5647 5645 5644 5642 5640 5639 5637 5634 5630 5626 5623 5619 5617 5614 5610 5606 5601 5595 5590 5584 5580 5574 5567 5558 5551 5543 5536 5530 5522 5514 5504 5497 5491 5485 5478 5471 5464 5461
5640 5640 5642 5642 5640 5639 5638 5635 5634 5631 5628 5625 5622 5619 5615 5611 5608 5605 5601 5598 5593 5588 5583 5578 5572 5566 5560 5552 5543 5535 5528 5521 5515 5508 5500 5494 5488 5483 5476 5471 5466 5462 5457
5636 5637 5636 5635 5632 5631 5629 5627 5624 5621 5618 5615 5611 5609 5605 5600 5596 5592 5588 5585 5580 5576 5571 5565 5559 5552 5545 5538 5530 5522 5515 5509 5503 5496 5490 5484 5479 5474 5469 5466 5462 5458 5455
5631 5629 5628 5626 5625 5623 5620 5618 5614 5610 5607 5604 5600 5597 5593 5588 5584 5581 5576 5572 5568 5564 5558 5551 5545 5538 5532 5526 5518 5511 5505 5498 5492 5486 5482 5477 5472 5468 5465 5461 5458 5456 5452
5624 5623 5622 5620 5617 5613 5610 5606 5602 5598 5595 5591 5587 5583 5579 5576 5573 5569 5564 5559 5555 5550 5544 5538 5533 5527 5520 5514 5508 5501 5495 5490 5484 5479 5475 5471 5467 5464 5461 5459 5456 5453 5449
5619 5616 5613 5610 5607 5603 5599 5593 5590 5586 5582 5580 5576 5572 5568 5564 5560 5556 5552 5547 5542 5537 5532 5527 5521 5516 5510 5505 5499 5493 5488 5483 5477 5473 5470 5465 5463 5461 5459 5457 5454 5451 5448
5611 5608 5604 5600 5596 5591 5587 5582 5578 5574 5570 5567 5564 5560 5555 5552 5548 5543 5539 5534 5530 5526 5520 5515 5510 5505 5501 5496 5491 5486 5481 5476 5472 5469 5465 5462 5459 5458 5457 5456 5454 5451 5450
5605 5601 5597 5592 5587 5582 5577 5572 5567 5563 5559 5556 5553 5549 5544 5540 5536 5532 5528 5523 5519 5514 5510 5506 5501 5497 5493 5489 5484 5479 5475 5471 5467 5464 5462 5459 5457 5456 5456 5455 5454 5453 5451
5602 5598 5592 5586 5580 5574 5569 5564 5558 5554 5550 5545 5541 5539 5536 5531 5527 5522 5518 5513 5508 5504 5500 5496 5492 5488 5485 5481 5477 5473 5469 5466 5463 5460 5458 5456 5454 5454 5455 5455 5454 5453 5452
5598 5593 5588 5581 5575 5568 5563 5557 5551 5547 5543 5538 5534 5530 5526 5522 5518 5513 5509 5504 5499 5495 5491 5487 5484 5481 5478 5474 5471 5467 5463 5461 5458 5457 5455 5453 5452 5452 5453 5454 5455 5455 5454
5592 5588 5582 5576 5570 5563 5557 5552 5547 5542 5538 5534 5530 5526 5522 5517 5513 5508 5502 5497 5491 5487 5483 5479 5476 5474 5471 5468 5464 5461 5458 5456 5454 5453 5452 5451 5450 5450 5451 5453 5455 5456 5456
5586 5581 5576 5570 5564 5557 5552 5548 5543 5539 5535 5531 5527 5524 5518 5513 5508 5503 5497 5491 5485 5480 5475 5472 5469 5467 5465 5462 5459 5455 5453 5451 5450 5449 5449 5449 5449 5448 5449 5451 5454 5455 5456
5580 5575 5569 5563 5557 5552 5547 5542 5538 5534 5530 5526 5522 5517 5512 5508 5503 5497 5492 5486 5480 5474 5469 5465 5462 5460 5458 5456 5453 5450 5448 5446 5445 5445 5445 5445 5446 5446 5447 5448 5451 5453 5456
5573 5568 5562 5557 5552 5546 5541 5536 5532 5528 5523 5519 5514 5510 5505 5501 5496 5490 5485 5478 5473 5468 5463 5458 5455 5453 5451 5450 5447 5445 5443 5442 5441 5441 5442 5442 5443 5444 5444 5445 5448 5451 5454
5567 5561 5555 5549 5543 5539 5534 5529 5524 5519 5515 5510 5505 5500 5496 5491 5486 5481 5476 5471 5465 5460 5456 5451 5448 5446 5444 5443 5442 5440 5439 5438 5437 5437 5438 5438 5439 5441 5442 5442 5444 5447 5451
5559 5554 5548 5542 5537 5531 5525 5519 5515 5510 5505 5500 5496 5491 5486 5482 5477 5472 5467 5462 5457 5452 5448 5443 5441 5439 5437 5436 5435 5434 5433 5433 5433 5433 5434 5435 5436 5437 5439 5440 5441 5443 5447